User: anonymous   Login
Location: Caltech
(34.1382°N, 118.1253°W)
Time: 09:06:59
(UTC-07:00)
Language:

Iridium 94 - Orbit

View from above orbital plane
View from above orbital plane
View from above satellite
View from above satellite

Ground track
Ground track

The orbit data is extracted from the following two-line orbital elements,

1 27374U 02005C   16151.26028671  .00000228  00000-0  74236-4 0  9994
2 27374  86.3984  55.8165 0001479 104.5099   7.1278 14.34219944761068
Epoch (UTC): 30 May 2016 06:14:48
Eccentricity: 0.0001479
inclination: 86.3984°
perigee height: 776 km
apogee height: 779 km
right ascension of ascending node: 55.8165°
argument of perigee: 104.5099°
revolutions per day: 14.34219944
mean anomaly at epoch: 7.1278°
orbit number at epoch: 76106

The dashed part of the orbit path shows where the satellite is in the earth's shadow,  

DLR